GW7455 Weather Reports


time (UTC)temp
C
wind
direction
speed
KPH
gust
KPH
rain 1hr
cm
rain 24hr
cm
rain mn
cm
humidity
%
barometer
mb
20260906123133 22 228 0.0 0.0 0.00 0.00 0.00 99 1013.0
20260906122632 22 233 0.0 0.0 0.00 0.00 0.00 99 1012.9
20260906122128 22 245 0.0 0.0 0.00 0.00 0.00 99 1012.7
20260906121624 22 245 0.0 3.2 0.00 0.00 0.00 99 1012.7
20260906121120 21 248 0.0 0.0 0.00 0.00 0.00 99 1012.5
20260906120615 21 267 0.0 0.0 0.00 0.00 0.00 99 1012.6
20260906120113 21 303 0.0 0.0 0.00 0.00 0.00 99 1012.4
20260906115612 21 303 0.0 0.0 0.00 0.00 0.00 99 1012.4
20260906115108 20 303 0.0 0.0 0.00 0.00 0.00 99 1012.5
20260906114608 20 302 0.0 0.0 0.00 0.00 0.00 99 1012.5
20260906114103 20 302 0.0 0.0 0.00 0.00 0.00 99 1012.3
20260906113602 20 301 0.0 0.0 0.00 0.00 0.00 99 1012.4
20260906113057 20 301 0.0 0.0 0.00 0.00 0.00 99 1012.2
20260906112557 20 301 0.0 0.0 0.00 0.00 0.00 99 1012.3
20260906112054 20 301 0.0 0.0 0.00 0.00 0.00 99 1012.3
20260906111553 20 300 0.0 0.0 0.00 0.00 0.00 99 1012.1
20260906111049 20 300 0.0 0.0 0.00 0.00 0.00 99 1012.1
20260906110549 20 300 0.0 0.0 0.00 0.00 0.00 99 1012.1
20260906110048 20 300 0.0 0.0 0.00 0.00 0.00 99 1012.1
20260906105543 20 300 0.0 0.0 0.00 0.00 0.00 99 1011.9
20260906105039 20 300 0.0 0.0 0.00 0.00 0.00 99 1011.9
20260906104538 20 300 0.0 0.0 0.00 0.00 0.00 99 1012.0
20260906104038 20 300 0.0 0.0 0.00 0.00 0.00 99 1011.9
20260906103536 20 300 0.0 0.0 0.00 0.00 0.00 99 1011.6
20260906103032 20 300 0.0 0.0 0.00 0.00 0.00 99 1011.5
20260906102531 20 300 0.0 0.0 0.00 0.00 0.00 99 1011.7
20260906102026 20 300 0.0 0.0 0.00 0.00 0.00 99 1011.4
20260906101521 20 300 0.0 0.0 0.00 0.00 0.00 99 1011.5
20260906101016 20 300 0.0 0.0 0.00 0.00 0.00 99 1011.5
20260906100512 20 300 0.0 0.0 0.00 0.00 0.00 99 1011.4
20260906100006 20 300 0.0 0.0 0.00 0.00 0.00 99 1011.4
20260906095501 20 300 0.0 0.0 0.00 0.00 0.00 99 1011.3
20260906094956 20 300 0.0 0.0 0.00 0.00 0.00 99 1011.2
20260906094455 20 300 0.0 0.0 0.00 0.00 0.00 99 1011.1
20260906093951 20 300 0.0 0.0 0.00 0.00 0.00 99 1010.9
20260906093447 20 300 0.0 0.0 0.00 0.00 0.00 99 1011.0
20260906092948 20 300 0.0 0.0 0.00 0.00 0.00 99 1011.0
20260906092447 20 300 0.0 0.0 0.00 0.00 0.00 99 1010.8
20260906091942 20 300 0.0 0.0 0.00 0.00 0.00 99 1010.9
20260906091438 20 300 0.0 0.0 0.00 0.00 0.00 99 1010.9
20260906090935 20 300 0.0 0.0 0.00 0.00 0.00 99 1010.9
20260906090430 20 300 0.0 0.0 0.00 0.00 0.00 99 1010.8
20260906085924 20 300 0.0 0.0 0.00 0.00 0.00 99 1010.8
20260906085423 20 300 0.0 0.0 0.00 0.00 0.00 99 1010.7
20260906084922 20 300 0.0 0.0 0.00 0.00 0.00 99 1010.9
20260906084418 20 300 0.0 0.0 0.00 0.00 0.00 99 1010.9
20260906083917 20 300 0.0 0.0 0.00 0.00 0.00 99 1011.1
20260906083412 20 300 0.0 0.0 0.00 0.00 0.00 99 1010.8
20260906082911 20 300 0.0 0.0 0.00 0.00 0.00 99 1011.0
20260906082407 20 300 0.0 0.0 0.00 0.00 0.00 99 1011.0
20260906081903 20 300 0.0 0.0 0.00 0.00 0.00 99 1011.0
20260906081358 20 300 0.0 0.0 0.00 0.00 0.00 99 1011.0
20260906080854 20 300 0.0 0.0 0.00 0.00 0.00 99 1011.1
20260906080351 20 300 0.0 0.0 0.00 0.00 0.00 99 1011.0
20260906075849 20 300 0.0 0.0 0.00 0.00 0.00 99 1010.9
20260906075344 20 300 0.0 0.0 0.00 0.00 0.00 99 1010.9
20260906074840 20 300 0.0 0.0 0.00 0.00 0.00 99 1011.2
20260906074340 20 300 0.0 0.0 0.00 0.00 0.00 99 1011.2
20260906073838 20 300 0.0 0.0 0.00 0.00 0.00 99 1011.2
20260906073333 20 300 0.0 0.0 0.00 0.00 0.00 99 1011.1
20260906072830 20 300 0.0 0.0 0.00 0.00 0.00 99 1011.3
20260906072326 20 300 0.0 0.0 0.00 0.00 0.00 99 1011.3
20260906071821 20 300 0.0 0.0 0.00 0.00 0.00 99 1011.3
20260906071321 20 300 0.0 0.0 0.00 0.00 0.00 99 1011.3
20260906070818 20 300 0.0 0.0 0.00 0.00 0.00 99 1011.0
20260906070313 20 300 0.0 0.0 0.00 0.00 0.00 99 1011.2
20260906065808 20 300 0.0 0.0 0.00 0.00 0.00 99 1011.2
20260906065305 20 300 0.0 0.0 0.00 0.00 0.00 99 1011.3
20260906064758 20 300 0.0 0.0 0.00 0.00 0.00 99 1011.3
20260906064254 20 300 0.0 0.0 0.00 0.00 0.00 99 1011.3
20260906063749 20 300 0.0 0.0 0.00 0.00 0.00 99 1011.3
20260906063245 20 300 0.0 0.0 0.00 0.00 0.00 99 1011.4
20260906062740 20 300 0.0 0.0 0.00 0.00 0.00 99 1011.4
20260906062239 20 300 0.0 0.0 0.00 0.00 0.00 99 1011.5
20260906061735 20 300 0.0 0.0 0.00 0.00 0.00 99 1011.4
20260906061231 20 300 0.0 0.0 0.00 0.00 0.00 99 1011.1
20260906060726 20 300 0.0 0.0 0.00 0.00 0.00 99 1011.3
20260906060224 20 300 0.0 0.0 0.00 0.00 0.00 99 1011.4
20260906055719 20 300 0.0 0.0 0.00 0.00 0.00 99 1011.3
20260906055214 20 300 0.0 0.0 0.00 0.00 0.00 99 1011.7
20260906054709 20 300 0.0 0.0 0.00 0.00 0.00 99 1011.4
20260906054204 20 300 0.0 0.0 0.00 0.00 0.00 99 1011.5
20260906053701 20 300 0.0 0.0 0.00 0.00 0.00 99 1011.3
20260906053156 20 300 0.0 0.0 0.00 0.00 0.00 99 1011.6
20260906052651 20 300 0.0 0.0 0.00 0.00 0.00 99 1011.2
20260906052147 20 300 0.0 0.0 0.00 0.00 0.00 99 1011.1
20260906051644 20 300 0.0 0.0 0.00 0.00 0.00 99 1011.3
20260906051143 20 300 0.0 0.0 0.00 0.00 0.00 99 1011.3
20260906050639 20 300 0.0 0.0 0.00 0.00 0.00 99 1011.3
20260906050134 20 300 0.0 0.0 0.00 0.00 0.00 99 1011.3
20260906045632 21 300 0.0 0.0 0.00 0.00 0.00 99 1011.8
20260906045127 21 300 0.0 0.0 0.00 0.00 0.00 99 1011.8
20260906044623 20 301 0.0 0.0 0.00 0.00 0.00 99 1011.6
20260906044118 21 300 0.0 0.0 0.00 0.00 0.00 99 1011.5
20260906043615 20 300 0.0 0.0 0.00 0.00 0.00 99 1011.6
20260906043110 20 300 0.0 0.0 0.00 0.00 0.00 99 1011.7
20260906042609 20 300 0.0 0.0 0.00 0.00 0.00 99 1011.6
20260906042104 20 300 0.0 0.0 0.00 0.00 0.00 99 1011.6
20260906041600 20 300 0.0 0.0 0.00 0.00 0.00 99 1011.7
20260906041054 20 300 0.0 0.0 0.00 0.00 0.00 99 1011.7
20260906040550 21 300 0.0 0.0 0.00 0.00 0.00 99 1011.9
20260906040045 21 300 0.0 0.0 0.00 0.00 0.00 99 1011.7
20260906035541 21 300 0.0 0.0 0.00 0.13 0.13 99 1011.9
20260906035037 21 300 0.0 0.0 0.00 0.13 0.13 99 1012.0
20260906034536 21 300 0.0 0.0 0.00 0.13 0.13 99 1012.0
20260906034031 21 300 0.0 0.0 0.00 0.13 0.13 99 1012.1
20260906033526 21 300 0.0 0.0 0.00 0.13 0.13 99 1012.2
20260906033022 21 300 0.0 0.0 0.00 0.13 0.13 99 1012.2
20260906032519 21 300 0.0 0.0 0.00 0.13 0.13 99 1012.2
20260906032018 21 300 0.0 0.0 0.00 0.13 0.13 99 1012.1
20260906031514 21 300 0.0 0.0 0.00 0.13 0.13 99 1012.2
20260906031009 21 301 0.0 0.0 0.00 0.13 0.13 99 1012.4
20260906030509 21 300 0.0 0.0 0.00 0.13 0.13 99 1012.2
20260906030009 21 300 0.0 0.0 0.00 0.13 0.13 99 1012.2
20260906025508 21 300 0.0 0.0 0.00 0.13 0.13 99 1012.4
20260906025007 21 300 0.0 0.0 0.00 0.13 0.13 99 1012.3
20260906024502 21 300 0.0 0.0 0.00 0.13 0.13 99 1012.3
20260906024002 21 300 0.0 0.0 0.00 0.13 0.13 99 1012.4
20260906023458 21 300 0.0 0.0 0.00 0.13 0.13 99 1012.2
20260906022953 21 300 0.0 0.0 0.00 0.13 0.13 99 1012.3
20260906022448 21 300 0.0 0.0 0.00 0.13 0.13 99 1012.3
20260906021944 21 319 0.0 0.0 0.00 0.13 0.13 99 1012.3
20260906021443 21 325 0.0 0.0 0.00 0.13 0.13 99 1012.4
20260906020938 22 22 0.0 0.0 0.00 0.13 0.13 99 1012.3
20260906020432 22 22 0.0 0.0 0.00 0.13 0.13 99 1012.2
20260906015927 22 22 0.0 0.0 0.00 0.13 0.13 99 1012.3
20260906015427 22 25 0.0 3.2 0.00 0.13 0.13 99 1012.1
20260906014926 22 283 0.0 0.0 0.00 0.13 0.13 99 1012.0
20260906014426 22 41 0.0 0.0 0.00 0.13 0.13 99 1012.2
20260906013922 22 163 4.8 4.8 0.00 0.13 0.13 99 1012.0
20260906013418 22 295 0.0 0.0 0.00 0.13 0.13 99 1012.5
20260906012913 22 295 0.0 3.2 0.00 0.13 0.13 99 1012.5
20260906012408 22 296 0.0 0.0 0.00 0.13 0.13 99 1012.5
20260906011907 22 338 1.6 3.2 0.00 0.13 0.13 99 1012.4
20260906011403 22 296 0.0 0.0 0.00 0.13 0.13 99 1012.3
20260906010858 22 294 0.0 0.0 0.00 0.13 0.13 99 1012.2
20260906010354 22 89 0.0 0.0 0.00 0.13 0.13 99 1012.2
20260906005850 22 342 1.6 3.2 0.00 0.13 0.13 99 1012.1
20260906005349 22 241 0.0 0.0 0.00 0.13 0.13 99 1012.1
20260906004847 21 239 0.0 0.0 0.00 0.13 0.13 99 1012.3
20260906004347 22 279 0.0 0.0 0.00 0.13 0.13 99 1012.2
20260906003842 21 305 3.2 3.2 0.00 0.13 0.13 99 1012.1
20260906003338 22 303 0.0 0.0 0.00 0.13 0.13 99 1012.2
20260906002833 21 4 0.0 0.0 0.00 0.13 0.13 99 1012.3
20260906002332 22 4 0.0 0.0 0.00 0.13 0.13 99 1012.2
20260906001828 22 3 0.0 0.0 0.00 0.13 0.13 99 1012.4
20260906001324 21 2 0.0 0.0 0.00 0.13 0.13 99 1012.1
20260906000819 21 2 0.0 0.0 0.00 0.13 0.13 99 1012.1
20260906000313 21 353 0.0 0.0 0.00 0.13 0.13 99 1011.7
20260905235808 21 290 0.0 0.0 0.00 0.13 0.13 99 1011.4
20260905235308 21 290 0.0 0.0 0.00 0.13 0.13 99 1010.9
20260905234804 21 290 0.0 0.0 0.00 0.13 0.13 99 1010.9
20260905234259 21 291 0.0 0.0 0.00 0.13 0.13 99 1011.0
20260905233754 21 290 0.0 0.0 0.00 0.13 0.13 99 1010.9
20260905233254 22 290 0.0 0.0 0.00 0.13 0.13 99 1011.0
20260905232753 22 295 0.0 0.0 0.00 0.13 0.13 99 1011.3
20260905232249 22 289 0.0 0.0 0.00 0.13 0.13 99 1011.6
20260905231745 22 299 0.0 0.0 0.00 0.13 0.13 99 1011.6
20260905231240 22 298 0.0 0.0 0.00 0.13 0.13 99 1011.5
20260905230736 22 299 0.0 3.2 0.00 0.13 0.13 99 1011.4
20260905230234 22 259 0.0 0.0 0.00 0.13 0.13 99 1011.2
20260905225733 22 258 0.0 0.0 0.00 0.13 0.13 99 1011.8
20260905225229 22 278 0.0 0.0 0.18 0.13 0.13 99 1011.8
20260905224728 22 279 0.0 0.0 0.18 0.13 0.13 99 1011.7
20260905224223 22 263 0.0 0.0 0.00 0.10 0.10 99 1011.5
20260905223719 22 279 1.6 3.2 0.00 0.10 0.10 99 1011.7
20260905223216 22 272 1.6 3.2 0.61 0.10 0.10 97 1010.7
20260905222712 23 285 4.8 4.8 0.61 0.10 0.10 94 1010.9
20260905222211 25 271 4.8 4.8 0.00 0.00 0.00 86 1012.2
20260905221707 26 165 17.7 30.6 0.00 0.00 0.00 80 1011.6
20260905221204 27 223 4.8 4.8 0.00 0.00 0.00 78 1010.8
20260905220659 28 257 3.2 8.0 0.00 0.00 0.00 77 1011.3
20260905220155 30 317 1.6 3.2 0.00 0.00 0.00 92 1010.9
20260905215654 30 318 0.0 0.0 0.00 0.00 0.00 91 1010.2
20260905215150 30 320 0.0 0.0 0.00 0.00 0.00 90 1009.7
20260905214646 30 320 0.0 0.0 0.00 0.00 0.00 89 1010.0
20260905214141 31 320 0.0 0.0 0.00 0.00 0.00 88 1010.1
20260905213636 31 320 0.0 0.0 0.00 0.00 0.00 87 1009.7
20260905213131 31 321 0.0 0.0 0.00 0.00 0.00 87 1009.6
20260905212627 31 321 0.0 0.0 0.00 0.00 0.00 88 1009.8
20260905212126 31 321 0.0 0.0 0.00 0.00 0.00 88 1009.4
20260905211621 31 320 0.0 0.0 0.00 0.00 0.00 87 1009.2
20260905211116 31 320 0.0 0.0 0.00 0.00 0.00 87 1009.4
20260905210613 31 320 0.0 0.0 0.00 0.00 0.00 86 1009.4
20260905210107 31 320 0.0 0.0 0.00 0.00 0.00 86 1009.6
20260905205607 31 321 0.0 0.0 0.00 0.00 0.00 85 1009.4
20260905205106 31 321 0.0 0.0 0.00 0.00 0.00 85 1009.4
20260905204600 31 320 0.0 0.0 0.00 0.00 0.00 85 1009.5
20260905204055 31 320 0.0 0.0 0.00 0.00 0.00 83 1009.3
20260905203556 31 320 0.0 0.0 0.00 0.00 0.00 82 1009.3
20260905203051 32 320 0.0 0.0 0.00 0.00 0.00 82 1009.2
20260905202546 32 321 0.0 0.0 0.00 0.00 0.00 79 1009.2
20260905202042 33 320 0.0 0.0 0.00 0.00 0.00 79 1009.3
20260905201538 33 321 0.0 0.0 0.00 0.00 0.00 75 1009.5
20260905201037 34 321 0.0 0.0 0.00 0.00 0.00 73 1009.7
20260905200532 35 320 0.0 0.0 0.00 0.00 0.00 72 1009.5
20260905200032 34 321 0.0 0.0 0.00 0.00 0.00 75 1009.4
20260905195526 33 321 0.0 0.0 0.00 0.00 0.00 76 1009.6
20260905195022 33 320 0.0 0.0 0.00 0.00 0.00 79 1009.6
20260905194522 33 320 0.0 0.0 0.00 0.00 0.00 77 1009.6
20260905194021 35 320 0.0 0.0 0.00 0.00 0.00 73 1009.8
20260905193521 35 320 0.0 0.0 0.00 0.00 0.00 72 1009.7
20260905193017 35 320 1.6 3.2 0.00 0.00 0.00 68 1010.1
20260905192512 36 321 1.6 3.2 0.00 0.00 0.00 69 1010.0
20260905192009 36 321 0.0 3.2 0.00 0.00 0.00 71 1009.9
20260905191507 36 321 0.0 3.2 0.00 0.00 0.00 69 1009.8
20260905191006 36 321 0.0 3.2 0.00 0.00 0.00 71 1010.1
20260905190504 35 320 0.0 0.0 0.00 0.00 0.00 73 1010.3
20260905190003 35 319 0.0 3.2 0.00 0.00 0.00 69 1010.1
20260905185458 36 319 4.8 4.8 0.00 0.00 0.00 69 1010.4
20260905184957 36 322 0.0 3.2 0.00 0.00 0.00 70 1010.7
20260905184452 36 323 0.0 0.0 0.00 0.00 0.00 68 1010.6
20260905183951 35 323 0.0 0.0 0.00 0.00 0.00 74 1010.7
20260905183450 35 320 1.6 3.2 0.00 0.00 0.00 72 1010.6
20260905182945 35 310 0.0 0.0 0.00 0.00 0.00 72 1010.9
20260905182445 35 310 0.0 0.0 0.00 0.00 0.00 72 1010.9
20260905181941 35 315 3.2 3.2 0.00 0.00 0.00 73 1011.1
20260905181441 34 315 3.2 3.2 0.00 0.00 0.00 73 1011.0
20260905180940 35 317 3.2 3.2 0.00 0.00 0.00 73 1011.4
20260905180435 34 315 4.8 4.8 0.00 0.00 0.00 75 1011.3
20260905175930 35 311 1.6 3.2 0.00 0.00 0.00 70 1011.4
20260905175429 35 311 3.2 3.2 0.00 0.00 0.00 74 1011.4
20260905174925 34 311 3.2 3.2 0.00 0.00 0.00 71 1011.6
20260905174420 34 311 1.6 3.2 0.00 0.00 0.00 73 1011.7
20260905173916 35 311 0.0 0.0 0.00 0.00 0.00 71 1011.6
20260905173412 35 311 1.6 3.2 0.00 0.00 0.00 71 1011.9
20260905172913 35 312 0.0 0.0 0.00 0.00 0.00 72 1011.8
20260905172410 33 311 1.6 3.2 0.00 0.00 0.00 73 1011.8
20260905171907 35 313 0.0 0.0 0.00 0.00 0.00 70 1011.8
20260905171403 34 314 0.0 0.0 0.00 0.00 0.00 76 1011.8
20260905170859 33 309 3.2 3.2 0.00 0.00 0.00 72 1011.8
20260905170355 33 309 3.2 3.2 0.00 0.00 0.00 73 1011.8
20260905165854 34 309 0.0 0.0 0.00 0.00 0.00 72 1012.1
20260905165349 33 309 0.0 3.2 0.00 0.00 0.00 75 1012.0
20260905164844 33 309 1.6 3.2 0.00 0.00 0.00 76 1012.1
20260905164339 32 309 1.6 3.2 0.00 0.00 0.00 76 1012.3
20260905163834 33 310 0.0 3.2 0.00 0.00 0.00 77 1012.4
20260905163331 33 309 1.6 3.2 0.00 0.00 0.00 74 1012.6
20260905162826 33 310 0.0 3.2 0.00 0.00 0.00 78 1012.7
20260905162327 33 312 3.2 3.2 0.00 0.00 0.00 78 1012.7
20260905161827 33 319 3.2 3.2 0.00 0.00 0.00 76 1012.7
20260905161326 33 320 0.0 0.0 0.00 0.00 0.00 77 1012.8
20260905160824 33 322 3.2 3.2 0.00 0.00 0.00 76 1012.9
20260905160319 33 316 3.2 4.8 0.00 0.00 0.00 77 1013.0
20260905155814 33 328 3.2 3.2 0.00 0.00 0.00 80 1013.1
20260905155313 32 312 3.2 3.2 0.00 0.00 0.00 79 1013.1
20260905154807 32 312 0.0 0.0 0.00 0.00 0.00 83 1013.2
20260905154302 32 312 3.2 3.2 0.00 0.00 0.00 79 1013.5
20260905153758 31 312 0.0 0.0 0.00 0.00 0.00 79 1013.3
20260905153254 31 312 4.8 4.8 0.00 0.00 0.00 82 1013.2
20260905152749 31 312 0.0 3.2 0.00 0.00 0.00 84 1013.5
20260905152248 31 312 0.0 3.2 0.00 0.00 0.00 82 1013.3
20260905151748 31 312 0.0 0.0 0.00 0.00 0.00 85 1013.5
20260905151244 31 311 3.2 4.8 0.00 0.00 0.00 85 1013.3
20260905150744 30 312 1.6 3.2 0.00 0.00 0.00 87 1013.5
20260905150243 30 312 1.6 3.2 0.00 0.00 0.00 88 1013.4
20260905145741 30 312 1.6 3.2 0.00 0.00 0.00 87 1013.4
20260905145236 30 312 3.2 3.2 0.00 0.00 0.00 88 1013.4
20260905144735 30 312 0.0 3.2 0.00 0.00 0.00 89 1013.5
20260905144230 29 312 3.2 4.8 0.00 0.00 0.00 89 1013.3
20260905143729 29 316 3.2 3.2 0.00 0.00 0.00 91 1013.5
20260905143229 29 326 0.0 0.0 0.00 0.00 0.00 90 1013.4
20260905142727 28 314 1.6 3.2 0.00 0.00 0.00 90 1013.5
20260905142222 28 313 1.6 3.2 0.00 0.00 0.00 92 1013.4
20260905141718 28 315 1.6 3.2 0.00 0.00 0.00 92 1013.4
20260905141214 28 316 1.6 3.2 0.00 0.00 0.00 93 1013.5
20260905140708 28 316 0.0 0.0 0.00 0.00 0.00 92 1013.5
20260905140203 28 313 3.2 3.2 0.00 0.00 0.00 94 1013.5
20260905135657 27 314 1.6 3.2 0.00 0.00 0.00 95 1013.5
20260905135154 27 315 3.2 3.2 0.00 0.00 0.00 96 1013.8
20260905134653 27 314 0.0 3.2 0.00 0.00 0.00 96 1013.6
20260905134152 27 314 0.0 3.2 0.00 0.00 0.00 95 1013.7
20260905133647 27 314 3.2 3.2 0.00 0.00 0.00 97 1013.6
20260905133148 27 314 0.0 0.0 0.00 0.00 0.00 97 1013.7
20260905132647 27 314 1.6 3.2 0.00 0.00 0.00 96 1013.7
20260905132142 27 314 0.0 3.2 0.00 0.00 0.00 97 1013.8
20260905131638 26 314 3.2 3.2 0.00 0.00 0.00 97 1013.8
20260905131138 26 314 3.2 3.2 0.00 0.00 0.00 98 1013.9
20260905130633 26 315 0.0 3.2 0.00 0.00 0.00 98 1013.8
20260905130133 26 315 0.0 3.2 0.00 0.00 0.00 98 1013.8
20260905125632 26 305 0.0 0.0 0.00 0.00 0.00 99 1013.9
20260905125128 26 303 0.0 0.0 0.00 0.00 0.00 99 1013.9
20260905124624 26 303 0.0 0.0 0.00 0.00 0.00 99 1013.9
20260905124120 26 304 0.0 0.0 0.00 0.00 0.00 99 1014.0
20260905123615 25 303 0.0 0.0 0.00 0.00 0.00 99 1014.0